Weather History for Pascagoula, MS

Change the Weather History Date:

Saturday, October 5, 2013

  Actual Average Record
Temperature  
Mean Temperature 78 °F -  
Max Temperature 88 °F 82 °F 92 °F (1963)
Min Temperature 69 °F 62 °F 42 °F (1987)
Cooling Degree Days 13    
Growing Degree Days 28 (Base 50)    
Moisture  
Dew Point 73 °F    
Average Humidity 89    
Maximum Humidity 100    
Minimum Humidity 61    
Precipitation  
Precipitation 0.00 in - - ()
Sea Level Pressure  
Sea Level Pressure 29.99 in    
Wind  
Wind Speed 2 mph (ESE)    
Max Wind Speed 15 mph    
Max Gust Speed 24 mph    
Visibility 5 miles    
Events Fog    
Averages and records for this station are not official NWS values.
T = Trace of Precipitation, MM = Missing Value Source: NWS Daily Summary

Daily Weather History Graph

Daily Weather History Graph

Search for Another Location

Airport:

Trip Planner

Search our weather history database for the weather conditions in past years. The results will help you decide how hot, cold, wet, or windy it might be!

Date:

Astronomy

Oct. 05, 2013 Rise Set
Actual Time 6:50 AM CDT 6:34 PM CDT
Civil Twilight 6:26 AM CDT 6:58 PM CDT
Nautical Twilight 5:58 AM CDT 7:26 PM CDT
Astronomical Twilight 5:30 AM CDT 7:53 PM CDT
Moon 7:24 AM CDT (10/5) 6:59 PM CDT (10/5)
Length of Visible Light 12h 32m
Length of Day
11h 44m
New Moon, 1% of the Moon is Illuminated
Oct 5
New Moon
Oct 11
First Quarter
Oct 18
Full
Oct 26
Last Quarter
Nov 3
New

Hourly Weather History & Observations

Time (CDT) Temp. Heat Index Dew Point Humidity Pressure Visibility Wind Dir Wind Speed Gust Speed Precip Events Conditions
12:53 AM 75.0 °F - 73.9 °F 96% 30.01 in 5.0 mi Calm Calm - N/A   Clear
1:32 AM 73.4 °F - 71.6 °F 94% 30.00 in 2.5 mi Calm Calm - N/A   Partly Cloudy
1:43 AM 73.4 °F - 71.6 °F 94% 30.00 in 3.0 mi Calm Calm - N/A   Partly Cloudy
1:49 AM 73.4 °F - 71.6 °F 94% 30.00 in 1.8 mi Calm Calm - N/A   Partly Cloudy
1:53 AM 72.0 °F - 72.0 °F 100% 30.01 in 1.2 mi Calm Calm - N/A   Partly Cloudy
2:01 AM 73.4 °F - 71.6 °F 94% 30.00 in 0.8 mi Calm Calm - N/A   Clear
2:21 AM 71.6 °F - 71.6 °F 100% 29.99 in 0.5 mi Calm Calm - N/A Fog Fog
2:30 AM 71.6 °F - 71.6 °F 100% 29.99 in 0.2 mi Calm Calm - N/A Fog Fog
2:38 AM 71.6 °F - 71.6 °F 100% 29.99 in 1.0 mi East 3.5 mph - N/A   Mist
2:41 AM 71.6 °F - 71.6 °F 100% 29.99 in 2.0 mi Calm Calm - N/A   Scattered Clouds
2:48 AM 73.4 °F - 73.4 °F 100% 29.99 in 5.0 mi East 3.5 mph - N/A   Partly Cloudy
2:53 AM 75.0 °F - 73.9 °F 96% 29.99 in 5.0 mi Calm Calm - N/A   Partly Cloudy
3:31 AM 73.4 °F - 71.6 °F 94% 29.99 in 1.8 mi Calm Calm - N/A   Clear
3:44 AM 73.4 °F - 71.6 °F 94% 29.99 in 0.8 mi Calm Calm - N/A   Mist
3:51 AM 71.6 °F - 71.6 °F 100% 29.99 in 0.2 mi Calm Calm - N/A Fog Fog
3:52 AM 72.0 °F - 72.0 °F 100% 30.00 in 0.2 mi Calm Calm - N/A Fog Fog
4:07 AM 71.6 °F - 71.6 °F 100% 29.99 in 0.5 mi Calm Calm - N/A Fog Fog
4:14 AM 69.8 °F - 69.8 °F 100% 29.99 in 0.2 mi Calm Calm - N/A Fog Fog
4:27 AM 71.6 °F - 71.6 °F 100% 29.99 in 0.5 mi Calm Calm - N/A Fog Fog
4:38 AM 71.6 °F - 71.6 °F 100% 29.99 in 2.0 mi East 3.5 mph - N/A   Mostly Cloudy
4:41 AM 73.4 °F - 71.6 °F 94% 29.99 in 4.0 mi ENE 4.6 mph - N/A   Scattered Clouds
4:53 AM 73.9 °F - 73.9 °F 100% 30.00 in 6.0 mi Calm Calm - N/A   Partly Cloudy
5:53 AM 73.9 °F - 73.9 °F 100% 30.01 in 4.0 mi Calm Calm - N/A   Partly Cloudy
6:18 AM 75.2 °F - 73.4 °F 94% 30.00 in 4.0 mi Calm Calm - N/A   Mostly Cloudy
6:40 AM 75.2 °F - 73.4 °F 94% 30.00 in 5.0 mi East 4.6 mph - N/A   Scattered Clouds
6:53 AM 75.0 °F - 73.9 °F 96% 30.01 in 6.0 mi ENE 3.5 mph - N/A   Clear
7:23 AM 75.2 °F - 75.2 °F 100% 30.01 in 6.0 mi ENE 3.5 mph - N/A   Partly Cloudy
7:53 AM 77.0 °F - 75.9 °F 96% 30.02 in 8.0 mi ENE 4.6 mph - N/A   Clear
8:53 AM 81.0 °F 87.9 °F 77.0 °F 88% 30.03 in 10.0 mi East 5.8 mph - N/A   Clear
9:53 AM 84.0 °F 91.2 °F 73.9 °F 72% 30.04 in 10.0 mi SE 15.0 mph 24.2 mph N/A   Partly Cloudy
10:53 AM 87.1 °F 94.5 °F 73.0 °F 63% 30.03 in 10.0 mi SSE 12.7 mph 20.7 mph N/A   Mostly Cloudy
11:53 AM 82.9 °F 88.8 °F 73.0 °F 72% 30.02 in 10.0 mi ESE 11.5 mph - N/A   Mostly Cloudy
12:53 PM 87.1 °F 93.6 °F 72.0 °F 61% 30.01 in 10.0 mi SSE 15.0 mph 19.6 mph N/A   Mostly Cloudy
1:53 PM 87.1 °F 93.6 °F 72.0 °F 61% 29.98 in 10.0 mi SSE 13.8 mph - N/A   Partly Cloudy
2:53 PM 86.0 °F 91.5 °F 71.1 °F 61% 29.96 in 10.0 mi SE 12.7 mph 19.6 mph N/A   Clear
3:53 PM 84.0 °F 90.2 °F 73.0 °F 69% 29.96 in 10.0 mi SE 15.0 mph 19.6 mph N/A   Clear
4:53 PM 84.9 °F 90.7 °F 72.0 °F 65% 29.95 in 10.0 mi SE 11.5 mph 17.3 mph N/A   Partly Cloudy
5:53 PM 82.9 °F 88.8 °F 73.0 °F 72% 29.95 in 10.0 mi SE 9.2 mph - N/A   Partly Cloudy
6:53 PM 79.0 °F - 73.0 °F 82% 29.95 in 10.0 mi SSE 5.8 mph - N/A   Clear
7:53 PM 78.1 °F - 73.0 °F 84% 29.95 in 10.0 mi SSE 4.6 mph - N/A   Partly Cloudy
8:53 PM 77.0 °F - 72.0 °F 84% 29.95 in 10.0 mi Calm Calm - N/A   Clear
9:53 PM 75.0 °F - 72.0 °F 90% 29.96 in 10.0 mi Calm Calm - N/A   Clear
10:53 PM 73.0 °F - 71.1 °F 93% 29.96 in 10.0 mi Calm Calm - N/A   Clear
11:53 PM 77.0 °F - 72.0 °F 84% 29.94 in 10.0 mi SSE 4.6 mph - N/A   Scattered Clouds